TimeEDT,TemperatureF,Dew PointF,Humidity,Sea Level PressureIn,VisibilityMPH,Wind Direction,Wind SpeedMPH,Gust SpeedMPH,PrecipitationIn,Events,Conditions,WindDirDegrees,DateUTC
12:52 AM,48.9,46.9,93,30.11,10.0,Calm,Calm,-,N/A,,Clear,0,2013-09-20 04:52:00
1:52 AM,48.0,46.0,93,30.10,10.0,Calm,Calm,-,N/A,,Clear,0,2013-09-20 05:52:00
2:52 AM,46.0,45.0,96,30.10,10.0,Calm,Calm,-,N/A,,Clear,0,2013-09-20 06:52:00
3:15 AM,44.6,44.6,100,30.08,10.0,Calm,Calm,-,N/A,,Scattered Clouds,0,2013-09-20 07:15:00
3:25 AM,46.4,44.6,93,30.08,10.0,SSW,3.5,-,N/A,,Mostly Cloudy,200,2013-09-20 07:25:00
3:52 AM,46.0,44.1,93,30.10,10.0,Calm,Calm,-,N/A,,Overcast,0,2013-09-20 07:52:00
4:31 AM,46.4,46.4,100,30.07,1.8,South,3.5,-,N/A,,Overcast,190,2013-09-20 08:31:00
4:40 AM,46.4,46.4,100,30.07,1.0,Calm,Calm,-,N/A,,Mist,0,2013-09-20 08:40:00
4:48 AM,46.4,44.6,93,30.07,0.5,Calm,Calm,-,N/A,Fog,Fog,0,2013-09-20 08:48:00
4:52 AM,46.0,45.0,96,30.09,0.5,Calm,Calm,-,N/A,Fog,Fog,0,2013-09-20 08:52:00
5:52 AM,46.9,46.9,100,30.09,0.2,Calm,Calm,-,N/A,Fog,Fog,0,2013-09-20 09:52:00
6:38 AM,46.4,44.6,93,30.10,1.8,Calm,Calm,-,N/A,,Overcast,0,2013-09-20 10:38:00
6:42 AM,44.6,44.6,100,30.10,0.5,Calm,Calm,-,N/A,Fog,Fog,0,2013-09-20 10:42:00
6:52 AM,46.0,45.0,96,30.13,0.2,Calm,Calm,-,N/A,Fog,Fog,0,2013-09-20 10:52:00
7:17 AM,46.4,44.6,93,30.10,1.5,Calm,Calm,-,N/A,,Overcast,0,2013-09-20 11:17:00
7:25 AM,44.6,44.6,100,30.11,1.0,Calm,Calm,-,N/A,,Mist,0,2013-09-20 11:25:00
7:33 AM,46.4,46.4,100,30.11,0.2,Calm,Calm,-,N/A,Fog,Fog,0,2013-09-20 11:33:00
7:52 AM,46.9,46.9,100,30.13,0.2,Calm,Calm,-,N/A,Fog,Fog,0,2013-09-20 11:52:00
8:18 AM,50.0,48.2,94,30.10,1.2,Calm,Calm,-,N/A,,Mostly Cloudy,0,2013-09-20 12:18:00
8:20 AM,50.0,50.0,100,30.10,2.5,Calm,Calm,-,N/A,,Mostly Cloudy,0,2013-09-20 12:20:00
8:24 AM,50.0,50.0,100,30.10,8.0,Calm,Calm,-,N/A,,Scattered Clouds,0,2013-09-20 12:24:00
8:52 AM,55.0,53.1,93,30.13,10.0,Calm,Calm,-,N/A,,Clear,0,2013-09-20 12:52:00
9:52 AM,64.0,52.0,65,30.13,10.0,Calm,Calm,-,N/A,,Clear,0,2013-09-20 13:52:00
10:52 AM,71.1,50.0,47,30.12,10.0,Calm,Calm,-,N/A,,Clear,0,2013-09-20 14:52:00
11:52 AM,73.9,51.1,45,30.10,10.0,Calm,Calm,-,N/A,,Clear,0,2013-09-20 15:52:00
12:52 PM,75.0,51.1,43,30.09,10.0,Calm,Calm,-,N/A,,Clear,0,2013-09-20 16:52:00
1:52 PM,75.9,48.9,38,30.07,10.0,South,8.1,-,N/A,,Clear,190,2013-09-20 17:52:00
2:52 PM,77.0,48.0,36,30.06,10.0,SSW,6.9,-,N/A,,Clear,210,2013-09-20 18:52:00
3:52 PM,75.9,51.1,42,30.04,10.0,South,8.1,-,N/A,,Clear,170,2013-09-20 19:52:00
4:52 PM,75.9,50.0,40,30.04,10.0,SSE,5.8,-,N/A,,Clear,160,2013-09-20 20:52:00
5:52 PM,73.0,53.1,49,30.05,10.0,SSW,4.6,-,N/A,,Clear,200,2013-09-20 21:52:00
6:52 PM,64.0,55.9,75,30.06,10.0,Calm,Calm,-,N/A,,Clear,0,2013-09-20 22:52:00
7:52 PM,57.9,55.0,90,30.06,10.0,Calm,Calm,-,N/A,,Clear,0,2013-09-20 23:52:00
8:52 PM,55.9,53.1,90,30.06,10.0,Calm,Calm,-,N/A,,Clear,0,2013-09-21 00:52:00
9:52 PM,55.0,53.1,93,30.05,10.0,Calm,Calm,-,N/A,,Clear,0,2013-09-21 01:52:00
10:52 PM,53.1,51.1,93,30.05,10.0,Calm,Calm,-,N/A,,Clear,0,2013-09-21 02:52:00
11:52 PM,51.1,50.0,96,30.05,8.0,Calm,Calm,-,N/A,,Clear,0,2013-09-21 03:52:00